<?xml version="1.0" encoding="UTF-8" standalone="no" ?>
<gpx xmlns="http://www.topografix.com/GPX/1/1" xmlns:xsi="http://www.w3.org/2001/XMLSchema-instance" xsi:schemaLocation="http://www.topografix.com/GPX/1/1 http://www.topografix.com/GPX/1/1/gpx.xsd" version="1.1" creator="VisuGPX - https://www.visugpx.com">
  <metadata>
    <name>Tréminis Chichilianne MAJ</name>
  </metadata>
  <trk>
    <name><![CDATA[Cordeac La Salette - itin Gilles Dallaporta]]></name>
    <trkseg>
      <trkpt lat="44.82721" lon="5.83371">
        <ele>932</ele>
        <time>2009-01-29T14:36:51Z</time>
      </trkpt>
      <trkpt lat="44.82789" lon="5.83445">
        <ele>918</ele>
        <time>2009-01-29T14:36:51Z</time>
      </trkpt>
      <trkpt lat="44.8282" lon="5.83462">
        <ele>913</ele>
        <time>2009-01-29T14:36:51Z</time>
      </trkpt>
      <trkpt lat="44.82777" lon="5.83684">
        <ele>910</ele>
        <time>2009-01-29T14:36:51Z</time>
      </trkpt>
      <trkpt lat="44.82763" lon="5.83838">
        <ele>907</ele>
        <time>2009-01-29T14:36:51Z</time>
      </trkpt>
      <trkpt lat="44.82768" lon="5.83946">
        <ele>904</ele>
        <time>2009-01-29T14:36:51Z</time>
      </trkpt>
      <trkpt lat="44.82769" lon="5.8401">
        <ele>905</ele>
        <time>2009-01-29T14:36:51Z</time>
      </trkpt>
      <trkpt lat="44.82686" lon="5.84191">
        <ele>901</ele>
        <time>2009-01-29T14:36:51Z</time>
      </trkpt>
      <trkpt lat="44.82744" lon="5.84501">
        <ele>911</ele>
        <time>2009-01-29T14:36:51Z</time>
      </trkpt>
      <trkpt lat="44.82782" lon="5.84653">
        <ele>900</ele>
        <time>2009-01-29T14:36:51Z</time>
      </trkpt>
      <trkpt lat="44.82775" lon="5.84725">
        <ele>896</ele>
        <time>2009-01-29T14:36:51Z</time>
      </trkpt>
      <trkpt lat="44.82755" lon="5.84799">
        <ele>893</ele>
        <time>2009-01-29T14:36:51Z</time>
      </trkpt>
      <trkpt lat="44.82483" lon="5.85428">
        <ele>884</ele>
        <time>2009-01-29T14:36:51Z</time>
      </trkpt>
      <trkpt lat="44.8245" lon="5.85467">
        <ele>884</ele>
        <time>2009-01-29T14:36:51Z</time>
      </trkpt>
      <trkpt lat="44.82358" lon="5.85467">
        <ele>886</ele>
        <time>2009-01-29T14:36:51Z</time>
      </trkpt>
      <trkpt lat="44.82349" lon="5.85527">
        <ele>882</ele>
        <time>2009-01-29T14:36:51Z</time>
      </trkpt>
      <trkpt lat="44.82343" lon="5.85586">
        <ele>875</ele>
        <time>2009-01-29T14:36:51Z</time>
      </trkpt>
      <trkpt lat="44.82325" lon="5.85585">
        <ele>879</ele>
        <time>2009-01-29T14:36:51Z</time>
      </trkpt>
      <trkpt lat="44.82274" lon="5.85557">
        <ele>895</ele>
        <time>2009-01-29T14:36:51Z</time>
      </trkpt>
      <trkpt lat="44.82224" lon="5.85566">
        <ele>901</ele>
        <time>2009-01-29T14:36:51Z</time>
      </trkpt>
      <trkpt lat="44.822" lon="5.85612">
        <ele>900</ele>
        <time>2009-01-29T14:36:51Z</time>
      </trkpt>
      <trkpt lat="44.82131" lon="5.85665">
        <ele>909</ele>
        <time>2009-01-29T14:36:51Z</time>
      </trkpt>
      <trkpt lat="44.82017" lon="5.8592">
        <ele>919</ele>
        <time>2009-01-29T14:36:51Z</time>
      </trkpt>
      <trkpt lat="44.81979" lon="5.85971">
        <ele>927</ele>
        <time>2009-01-29T14:36:51Z</time>
      </trkpt>
      <trkpt lat="44.81939" lon="5.86035">
        <ele>934</ele>
        <time>2009-01-29T14:36:51Z</time>
      </trkpt>
      <trkpt lat="44.81901" lon="5.86084">
        <ele>938</ele>
        <time>2009-01-29T14:36:51Z</time>
      </trkpt>
      <trkpt lat="44.81882" lon="5.86067">
        <ele>941</ele>
        <time>2009-01-29T14:36:51Z</time>
      </trkpt>
      <trkpt lat="44.81854" lon="5.86077">
        <ele>940</ele>
        <time>2009-01-29T14:36:51Z</time>
      </trkpt>
      <trkpt lat="44.81828" lon="5.86044">
        <ele>943</ele>
        <time>2009-01-29T14:36:51Z</time>
      </trkpt>
      <trkpt lat="44.81779" lon="5.86044">
        <ele>934</ele>
        <time>2009-01-29T14:36:51Z</time>
      </trkpt>
      <trkpt lat="44.81683" lon="5.85928">
        <ele>935</ele>
        <time>2009-01-29T14:36:51Z</time>
      </trkpt>
      <trkpt lat="44.81653" lon="5.8597">
        <ele>923</ele>
        <time>2009-01-29T14:36:51Z</time>
      </trkpt>
      <trkpt lat="44.81618" lon="5.86063">
        <ele>912</ele>
        <time>2009-01-29T14:36:51Z</time>
      </trkpt>
      <trkpt lat="44.81549" lon="5.86121">
        <ele>903</ele>
        <time>2009-01-29T14:36:51Z</time>
      </trkpt>
      <trkpt lat="44.81436" lon="5.86133">
        <ele>898</ele>
        <time>2009-01-29T14:36:51Z</time>
      </trkpt>
      <trkpt lat="44.81369" lon="5.86192">
        <ele>888</ele>
        <time>2009-01-29T14:36:51Z</time>
      </trkpt>
      <trkpt lat="44.81349" lon="5.86194">
        <ele>890</ele>
        <time>2009-01-29T14:36:51Z</time>
      </trkpt>
      <trkpt lat="44.81302" lon="5.86239">
        <ele>887</ele>
        <time>2009-01-29T14:36:51Z</time>
      </trkpt>
      <trkpt lat="44.81277" lon="5.86329">
        <ele>875</ele>
        <time>2009-01-29T14:36:51Z</time>
      </trkpt>
      <trkpt lat="44.81229" lon="5.86405">
        <ele>871</ele>
        <time>2009-01-29T14:36:51Z</time>
      </trkpt>
      <trkpt lat="44.81199" lon="5.86431">
        <ele>875</ele>
        <time>2009-01-29T14:36:51Z</time>
      </trkpt>
      <trkpt lat="44.81209" lon="5.86486">
        <ele>886</ele>
        <time>2009-01-29T14:36:51Z</time>
      </trkpt>
      <trkpt lat="44.81257" lon="5.86511">
        <ele>887</ele>
        <time>2009-01-29T14:36:51Z</time>
      </trkpt>
      <trkpt lat="44.81361" lon="5.86571">
        <ele>908</ele>
        <time>2009-01-29T14:36:51Z</time>
      </trkpt>
      <trkpt lat="44.81447" lon="5.86555">
        <ele>916</ele>
        <time>2009-01-29T14:36:51Z</time>
      </trkpt>
      <trkpt lat="44.81559" lon="5.86524">
        <ele>902</ele>
        <time>2009-01-29T14:36:51Z</time>
      </trkpt>
      <trkpt lat="44.81609" lon="5.86571">
        <ele>904</ele>
        <time>2009-01-29T14:36:51Z</time>
      </trkpt>
      <trkpt lat="44.81641" lon="5.86611">
        <ele>908</ele>
        <time>2009-01-29T14:36:51Z</time>
      </trkpt>
      <trkpt lat="44.81724" lon="5.86632">
        <ele>906</ele>
        <time>2009-01-29T14:36:51Z</time>
      </trkpt>
      <trkpt lat="44.81712" lon="5.8666">
        <ele>908</ele>
        <time>2009-01-29T14:36:51Z</time>
      </trkpt>
      <trkpt lat="44.81561" lon="5.8659">
        <ele>911</ele>
        <time>2009-01-29T14:36:51Z</time>
      </trkpt>
      <trkpt lat="44.81523" lon="5.86575">
        <ele>916</ele>
        <time>2009-01-29T14:36:51Z</time>
      </trkpt>
      <trkpt lat="44.81445" lon="5.86618">
        <ele>929</ele>
        <time>2009-01-29T14:36:51Z</time>
      </trkpt>
      <trkpt lat="44.81453" lon="5.86653">
        <ele>928</ele>
        <time>2009-01-29T14:36:51Z</time>
      </trkpt>
      <trkpt lat="44.81269" lon="5.87071">
        <ele>905</ele>
        <time>2009-01-29T14:36:51Z</time>
      </trkpt>
      <trkpt lat="44.81296" lon="5.87127">
        <ele>902</ele>
        <time>2009-01-29T14:36:51Z</time>
      </trkpt>
      <trkpt lat="44.81308" lon="5.87169">
        <ele>898</ele>
        <time>2009-01-29T14:36:51Z</time>
      </trkpt>
      <trkpt lat="44.81539" lon="5.87338">
        <ele>900</ele>
        <time>2009-01-29T14:36:51Z</time>
      </trkpt>
      <trkpt lat="44.81542" lon="5.8738">
        <ele>893</ele>
        <time>2009-01-29T14:36:51Z</time>
      </trkpt>
      <trkpt lat="44.81579" lon="5.87442">
        <ele>890</ele>
        <time>2009-01-29T14:36:51Z</time>
      </trkpt>
      <trkpt lat="44.81575" lon="5.8748">
        <ele>881</ele>
        <time>2009-01-29T14:36:51Z</time>
      </trkpt>
      <trkpt lat="44.81621" lon="5.87536">
        <ele>876</ele>
        <time>2009-01-29T14:36:51Z</time>
      </trkpt>
      <trkpt lat="44.81644" lon="5.87576">
        <ele>871</ele>
        <time>2009-01-29T14:36:51Z</time>
      </trkpt>
      <trkpt lat="44.81623" lon="5.87597">
        <ele>866</ele>
        <time>2009-01-29T14:36:51Z</time>
      </trkpt>
      <trkpt lat="44.81568" lon="5.87552">
        <ele>865</ele>
        <time>2009-01-29T14:36:51Z</time>
      </trkpt>
      <trkpt lat="44.81522" lon="5.8747">
        <ele>868</ele>
        <time>2009-01-29T14:36:51Z</time>
      </trkpt>
      <trkpt lat="44.81459" lon="5.87381">
        <ele>864</ele>
        <time>2009-01-29T14:36:51Z</time>
      </trkpt>
      <trkpt lat="44.81403" lon="5.87383">
        <ele>848</ele>
        <time>2009-01-29T14:36:51Z</time>
      </trkpt>
      <trkpt lat="44.81325" lon="5.87344">
        <ele>842</ele>
        <time>2009-01-29T14:36:51Z</time>
      </trkpt>
      <trkpt lat="44.81274" lon="5.87337">
        <ele>836</ele>
        <time>2009-01-29T14:36:51Z</time>
      </trkpt>
      <trkpt lat="44.81205" lon="5.87305">
        <ele>836</ele>
        <time>2009-01-29T14:36:51Z</time>
      </trkpt>
      <trkpt lat="44.81199" lon="5.87348">
        <ele>837</ele>
        <time>2009-01-29T14:36:51Z</time>
      </trkpt>
      <trkpt lat="44.81255" lon="5.8744">
        <ele>834</ele>
        <time>2009-01-29T14:36:51Z</time>
      </trkpt>
      <trkpt lat="44.8129" lon="5.87588">
        <ele>847</ele>
        <time>2009-01-29T14:36:51Z</time>
      </trkpt>
      <trkpt lat="44.81277" lon="5.87651">
        <ele>859</ele>
        <time>2009-01-29T14:36:51Z</time>
      </trkpt>
      <trkpt lat="44.81295" lon="5.87712">
        <ele>863</ele>
        <time>2009-01-29T14:36:51Z</time>
      </trkpt>
      <trkpt lat="44.81219" lon="5.87931">
        <ele>891</ele>
        <time>2009-01-29T14:36:51Z</time>
      </trkpt>
      <trkpt lat="44.8125" lon="5.88">
        <ele>892</ele>
        <time>2009-01-29T14:36:51Z</time>
      </trkpt>
      <trkpt lat="44.81233" lon="5.8803">
        <ele>897</ele>
        <time>2009-01-29T14:36:51Z</time>
      </trkpt>
      <trkpt lat="44.81225" lon="5.88071">
        <ele>900</ele>
        <time>2009-01-29T14:36:51Z</time>
      </trkpt>
      <trkpt lat="44.81226" lon="5.88131">
        <ele>901</ele>
        <time>2009-01-29T14:36:51Z</time>
      </trkpt>
      <trkpt lat="44.8122" lon="5.88169">
        <ele>901</ele>
        <time>2009-01-29T14:36:51Z</time>
      </trkpt>
      <trkpt lat="44.81149" lon="5.88427">
        <ele>901</ele>
        <time>2009-01-29T14:36:51Z</time>
      </trkpt>
      <trkpt lat="44.81129" lon="5.88485">
        <ele>898</ele>
        <time>2009-01-29T14:36:51Z</time>
      </trkpt>
      <trkpt lat="44.81128" lon="5.88593">
        <ele>889</ele>
        <time>2009-01-29T14:36:51Z</time>
      </trkpt>
      <trkpt lat="44.81104" lon="5.88759">
        <ele>891</ele>
        <time>2009-01-29T14:36:51Z</time>
      </trkpt>
      <trkpt lat="44.81104" lon="5.88829">
        <ele>888</ele>
        <time>2009-01-29T14:36:51Z</time>
      </trkpt>
      <trkpt lat="44.8105" lon="5.88904">
        <ele>889</ele>
        <time>2009-01-29T14:36:51Z</time>
      </trkpt>
      <trkpt lat="44.81001" lon="5.89024">
        <ele>886</ele>
        <time>2009-01-29T14:36:51Z</time>
      </trkpt>
      <trkpt lat="44.80982" lon="5.89064">
        <ele>886</ele>
        <time>2009-01-29T14:36:51Z</time>
      </trkpt>
      <trkpt lat="44.8094" lon="5.89122">
        <ele>890</ele>
        <time>2009-01-29T14:36:51Z</time>
      </trkpt>
      <trkpt lat="44.80913" lon="5.8919">
        <ele>893</ele>
        <time>2009-01-29T14:36:51Z</time>
      </trkpt>
      <trkpt lat="44.80934" lon="5.89213">
        <ele>890</ele>
        <time>2009-01-29T14:36:51Z</time>
      </trkpt>
      <trkpt lat="44.80971" lon="5.8926">
        <ele>886</ele>
        <time>2009-01-29T14:36:51Z</time>
      </trkpt>
      <trkpt lat="44.80969" lon="5.89335">
        <ele>888</ele>
        <time>2009-01-29T14:36:51Z</time>
      </trkpt>
      <trkpt lat="44.81016" lon="5.89528">
        <ele>887</ele>
        <time>2009-01-29T14:36:51Z</time>
      </trkpt>
      <trkpt lat="44.80985" lon="5.89586">
        <ele>889</ele>
        <time>2009-01-29T14:36:51Z</time>
      </trkpt>
      <trkpt lat="44.80956" lon="5.89644">
        <ele>889</ele>
        <time>2009-01-29T14:36:51Z</time>
      </trkpt>
      <trkpt lat="44.80948" lon="5.89691">
        <ele>890</ele>
        <time>2009-01-29T14:36:51Z</time>
      </trkpt>
      <trkpt lat="44.8086" lon="5.89781">
        <ele>895</ele>
        <time>2009-01-29T14:36:51Z</time>
      </trkpt>
      <trkpt lat="44.80795" lon="5.89849">
        <ele>901</ele>
        <time>2009-01-29T14:36:51Z</time>
      </trkpt>
      <trkpt lat="44.80821" lon="5.89939">
        <ele>907</ele>
        <time>2009-01-29T14:36:51Z</time>
      </trkpt>
      <trkpt lat="44.80926" lon="5.90095">
        <ele>915</ele>
        <time>2009-01-29T14:36:51Z</time>
      </trkpt>
      <trkpt lat="44.80906" lon="5.90577">
        <ele>928</ele>
        <time>2009-01-29T14:36:51Z</time>
      </trkpt>
      <trkpt lat="44.80898" lon="5.90703">
        <ele>925</ele>
        <time>2009-01-29T14:36:51Z</time>
      </trkpt>
      <trkpt lat="44.80875" lon="5.90774">
        <ele>920</ele>
        <time>2009-01-29T14:36:51Z</time>
      </trkpt>
      <trkpt lat="44.80835" lon="5.90822">
        <ele>915</ele>
        <time>2009-01-29T14:36:51Z</time>
      </trkpt>
      <trkpt lat="44.80947" lon="5.90785">
        <ele>917</ele>
        <time>2009-01-29T14:36:51Z</time>
      </trkpt>
      <trkpt lat="44.81061" lon="5.90802">
        <ele>918</ele>
        <time>2009-01-29T14:36:51Z</time>
      </trkpt>
      <trkpt lat="44.81169" lon="5.90863">
        <ele>916</ele>
        <time>2009-01-29T14:36:51Z</time>
      </trkpt>
      <trkpt lat="44.81238" lon="5.90889">
        <ele>909</ele>
        <time>2009-01-29T14:36:51Z</time>
      </trkpt>
      <trkpt lat="44.81303" lon="5.90821">
        <ele>906</ele>
        <time>2009-01-29T14:36:51Z</time>
      </trkpt>
      <trkpt lat="44.81325" lon="5.90844">
        <ele>902</ele>
        <time>2009-01-29T14:36:51Z</time>
      </trkpt>
      <trkpt lat="44.81376" lon="5.90882">
        <ele>892</ele>
        <time>2009-01-29T14:36:51Z</time>
      </trkpt>
      <trkpt lat="44.81426" lon="5.90911">
        <ele>879</ele>
        <time>2009-01-29T14:36:51Z</time>
      </trkpt>
      <trkpt lat="44.81442" lon="5.90909">
        <ele>876</ele>
        <time>2009-01-29T14:36:51Z</time>
      </trkpt>
      <trkpt lat="44.81455" lon="5.90938">
        <ele>867</ele>
        <time>2009-01-29T14:36:51Z</time>
      </trkpt>
      <trkpt lat="44.81492" lon="5.90912">
        <ele>862</ele>
        <time>2009-01-29T14:36:51Z</time>
      </trkpt>
      <trkpt lat="44.81497" lon="5.9095">
        <ele>852</ele>
        <time>2009-01-29T14:36:51Z</time>
      </trkpt>
      <trkpt lat="44.81474" lon="5.90971">
        <ele>854</ele>
        <time>2009-01-29T14:36:51Z</time>
      </trkpt>
      <trkpt lat="44.81375" lon="5.91116">
        <ele>857</ele>
        <time>2009-01-29T14:36:51Z</time>
      </trkpt>
      <trkpt lat="44.81371" lon="5.91151">
        <ele>854</ele>
        <time>2009-01-29T14:36:51Z</time>
      </trkpt>
      <trkpt lat="44.81399" lon="5.91146">
        <ele>847</ele>
        <time>2009-01-29T14:36:51Z</time>
      </trkpt>
      <trkpt lat="44.81416" lon="5.9116">
        <ele>839</ele>
        <time>2009-01-29T14:36:51Z</time>
      </trkpt>
      <trkpt lat="44.81419" lon="5.91129">
        <ele>842</ele>
        <time>2009-01-29T14:36:51Z</time>
      </trkpt>
      <trkpt lat="44.8142" lon="5.911">
        <ele>845</ele>
        <time>2009-01-29T14:36:51Z</time>
      </trkpt>
      <trkpt lat="44.81507" lon="5.91008">
        <ele>834</ele>
        <time>2009-01-29T14:36:51Z</time>
      </trkpt>
      <trkpt lat="44.81523" lon="5.90977">
        <ele>840</ele>
        <time>2009-01-29T14:36:51Z</time>
      </trkpt>
      <trkpt lat="44.81488" lon="5.9082">
        <ele>865</ele>
        <time>2009-01-29T14:36:51Z</time>
      </trkpt>
      <trkpt lat="44.81538" lon="5.90798">
        <ele>840</ele>
        <time>2009-01-29T14:36:51Z</time>
      </trkpt>
      <trkpt lat="44.81553" lon="5.90761">
        <ele>830</ele>
        <time>2009-01-29T14:36:51Z</time>
      </trkpt>
      <trkpt lat="44.81588" lon="5.90731">
        <ele>813</ele>
        <time>2009-01-29T14:36:51Z</time>
      </trkpt>
      <trkpt lat="44.81612" lon="5.90809">
        <ele>799</ele>
        <time>2009-01-29T14:36:51Z</time>
      </trkpt>
      <trkpt lat="44.81603" lon="5.90729">
        <ele>799</ele>
        <time>2009-01-29T14:36:51Z</time>
      </trkpt>
      <trkpt lat="44.81629" lon="5.90715">
        <ele>774</ele>
        <time>2009-01-29T14:36:51Z</time>
      </trkpt>
      <trkpt lat="44.8168" lon="5.90807">
        <ele>763</ele>
        <time>2009-01-29T14:36:51Z</time>
      </trkpt>
      <trkpt lat="44.81767" lon="5.90743">
        <ele>777</ele>
        <time>2009-01-29T14:36:51Z</time>
      </trkpt>
      <trkpt lat="44.81773" lon="5.90715">
        <ele>786</ele>
        <time>2009-01-29T14:36:51Z</time>
      </trkpt>
      <trkpt lat="44.8179" lon="5.90735">
        <ele>789</ele>
        <time>2009-01-29T14:36:51Z</time>
      </trkpt>
      <trkpt lat="44.81814" lon="5.90758">
        <ele>796</ele>
        <time>2009-01-29T14:36:51Z</time>
      </trkpt>
      <trkpt lat="44.81814" lon="5.90705">
        <ele>804</ele>
        <time>2009-01-29T14:36:51Z</time>
      </trkpt>
      <trkpt lat="44.81824" lon="5.90737">
        <ele>803</ele>
        <time>2009-01-29T14:36:51Z</time>
      </trkpt>
      <trkpt lat="44.81821" lon="5.9067">
        <ele>811</ele>
        <time>2009-01-29T14:36:51Z</time>
      </trkpt>
      <trkpt lat="44.81831" lon="5.90655">
        <ele>814</ele>
        <time>2009-01-29T14:36:51Z</time>
      </trkpt>
      <trkpt lat="44.81832" lon="5.907">
        <ele>811</ele>
        <time>2009-01-29T14:36:51Z</time>
      </trkpt>
      <trkpt lat="44.81853" lon="5.90676">
        <ele>820</ele>
        <time>2009-01-29T14:36:51Z</time>
      </trkpt>
      <trkpt lat="44.81874" lon="5.90655">
        <ele>828</ele>
        <time>2009-01-29T14:36:51Z</time>
      </trkpt>
      <trkpt lat="44.81891" lon="5.90675">
        <ele>834</ele>
        <time>2009-01-29T14:36:51Z</time>
      </trkpt>
      <trkpt lat="44.81911" lon="5.9067">
        <ele>841</ele>
        <time>2009-01-29T14:36:51Z</time>
      </trkpt>
      <trkpt lat="44.81977" lon="5.90652">
        <ele>866</ele>
        <time>2009-01-29T14:36:51Z</time>
      </trkpt>
      <trkpt lat="44.81959" lon="5.9073">
        <ele>863</ele>
        <time>2009-01-29T14:36:51Z</time>
      </trkpt>
      <trkpt lat="44.81972" lon="5.90746">
        <ele>868</ele>
        <time>2009-01-29T14:36:51Z</time>
      </trkpt>
      <trkpt lat="44.81992" lon="5.90811">
        <ele>873</ele>
        <time>2009-01-29T14:36:51Z</time>
      </trkpt>
      <trkpt lat="44.82007" lon="5.90853">
        <ele>876</ele>
        <time>2009-01-29T14:36:51Z</time>
      </trkpt>
      <trkpt lat="44.82007" lon="5.90995">
        <ele>867</ele>
        <time>2009-01-29T14:36:51Z</time>
      </trkpt>
      <trkpt lat="44.82023" lon="5.91056">
        <ele>870</ele>
        <time>2009-01-29T14:36:51Z</time>
      </trkpt>
      <trkpt lat="44.82024" lon="5.91158">
        <ele>871</ele>
        <time>2009-01-29T14:36:51Z</time>
      </trkpt>
      <trkpt lat="44.82011" lon="5.91198">
        <ele>866</ele>
        <time>2009-01-29T14:36:51Z</time>
      </trkpt>
      <trkpt lat="44.81974" lon="5.91237">
        <ele>852</ele>
        <time>2009-01-29T14:36:51Z</time>
      </trkpt>
      <trkpt lat="44.81978" lon="5.91259">
        <ele>849</ele>
        <time>2009-01-29T14:36:51Z</time>
      </trkpt>
      <trkpt lat="44.81997" lon="5.91283">
        <ele>845</ele>
        <time>2009-01-29T14:36:51Z</time>
      </trkpt>
      <trkpt lat="44.82033" lon="5.9131">
        <ele>840</ele>
        <time>2009-01-29T14:36:51Z</time>
      </trkpt>
      <trkpt lat="44.82148" lon="5.9121">
        <ele>858</ele>
        <time>2009-01-29T14:36:51Z</time>
      </trkpt>
      <trkpt lat="44.82195" lon="5.91229">
        <ele>863</ele>
        <time>2009-01-29T14:36:51Z</time>
      </trkpt>
      <trkpt lat="44.82212" lon="5.91271">
        <ele>856</ele>
        <time>2009-01-29T14:36:51Z</time>
      </trkpt>
      <trkpt lat="44.8224" lon="5.91298">
        <ele>861</ele>
        <time>2009-01-29T14:36:51Z</time>
      </trkpt>
      <trkpt lat="44.82257" lon="5.91328">
        <ele>858</ele>
        <time>2009-01-29T14:36:51Z</time>
      </trkpt>
      <trkpt lat="44.8226" lon="5.91372">
        <ele>850</ele>
        <time>2009-01-29T14:36:51Z</time>
      </trkpt>
      <trkpt lat="44.82295" lon="5.91393">
        <ele>850</ele>
        <time>2009-01-29T14:36:51Z</time>
      </trkpt>
      <trkpt lat="44.82341" lon="5.91444">
        <ele>854</ele>
        <time>2009-01-29T14:36:51Z</time>
      </trkpt>
      <trkpt lat="44.82355" lon="5.91514">
        <ele>858</ele>
        <time>2009-01-29T14:36:51Z</time>
      </trkpt>
      <trkpt lat="44.82354" lon="5.91606">
        <ele>857</ele>
        <time>2009-01-29T14:36:51Z</time>
      </trkpt>
      <trkpt lat="44.82368" lon="5.91733">
        <ele>863</ele>
        <time>2009-01-29T14:36:51Z</time>
      </trkpt>
      <trkpt lat="44.82359" lon="5.91859">
        <ele>878</ele>
        <time>2009-01-29T14:36:51Z</time>
      </trkpt>
      <trkpt lat="44.82386" lon="5.91855">
        <ele>869</ele>
        <time>2009-01-29T14:36:51Z</time>
      </trkpt>
      <trkpt lat="44.82402" lon="5.91871">
        <ele>861</ele>
        <time>2009-01-29T14:36:51Z</time>
      </trkpt>
      <trkpt lat="44.82443" lon="5.92105">
        <ele>832</ele>
        <time>2009-01-29T14:36:51Z</time>
      </trkpt>
      <trkpt lat="44.82466" lon="5.921">
        <ele>826</ele>
        <time>2009-01-29T14:36:51Z</time>
      </trkpt>
      <trkpt lat="44.82476" lon="5.9206">
        <ele>823</ele>
        <time>2009-01-29T14:36:51Z</time>
      </trkpt>
      <trkpt lat="44.82461" lon="5.91986">
        <ele>828</ele>
        <time>2009-01-29T14:36:51Z</time>
      </trkpt>
      <trkpt lat="44.82463" lon="5.91926">
        <ele>829</ele>
        <time>2009-01-29T14:36:51Z</time>
      </trkpt>
      <trkpt lat="44.82488" lon="5.91848">
        <ele>819</ele>
        <time>2009-01-29T14:36:51Z</time>
      </trkpt>
      <trkpt lat="44.82508" lon="5.91628">
        <ele>806</ele>
        <time>2009-01-29T14:36:51Z</time>
      </trkpt>
      <trkpt lat="44.82544" lon="5.9158">
        <ele>792</ele>
        <time>2009-01-29T14:36:51Z</time>
      </trkpt>
      <trkpt lat="44.82572" lon="5.91544">
        <ele>782</ele>
        <time>2009-01-29T14:36:51Z</time>
      </trkpt>
      <trkpt lat="44.82594" lon="5.91431">
        <ele>772</ele>
        <time>2009-01-29T14:36:51Z</time>
      </trkpt>
      <trkpt lat="44.82591" lon="5.91368">
        <ele>767</ele>
        <time>2009-01-29T14:36:51Z</time>
      </trkpt>
      <trkpt lat="44.82572" lon="5.91335">
        <ele>773</ele>
        <time>2009-01-29T14:36:51Z</time>
      </trkpt>
      <trkpt lat="44.82586" lon="5.91327">
        <ele>767</ele>
        <time>2009-01-29T14:36:51Z</time>
      </trkpt>
      <trkpt lat="44.82635" lon="5.91393">
        <ele>752</ele>
        <time>2009-01-29T14:36:51Z</time>
      </trkpt>
      <trkpt lat="44.82634" lon="5.91361">
        <ele>750</ele>
        <time>2009-01-29T14:36:51Z</time>
      </trkpt>
      <trkpt lat="44.82668" lon="5.91427">
        <ele>752</ele>
        <time>2009-01-29T14:36:51Z</time>
      </trkpt>
      <trkpt lat="44.82694" lon="5.91463">
        <ele>757</ele>
        <time>2009-01-29T14:36:51Z</time>
      </trkpt>
      <trkpt lat="44.82715" lon="5.91506">
        <ele>765</ele>
        <time>2009-01-29T14:36:51Z</time>
      </trkpt>
      <trkpt lat="44.82691" lon="5.91608">
        <ele>762</ele>
        <time>2009-01-29T14:36:51Z</time>
      </trkpt>
      <trkpt lat="44.82702" lon="5.91688">
        <ele>767</ele>
        <time>2009-01-29T14:36:51Z</time>
      </trkpt>
      <trkpt lat="44.82715" lon="5.91838">
        <ele>770</ele>
        <time>2009-01-29T14:36:51Z</time>
      </trkpt>
      <trkpt lat="44.82735" lon="5.91709">
        <ele>780</ele>
        <time>2009-01-29T14:36:51Z</time>
      </trkpt>
      <trkpt lat="44.8277" lon="5.91683">
        <ele>792</ele>
        <time>2009-01-29T14:36:51Z</time>
      </trkpt>
      <trkpt lat="44.82798" lon="5.91593">
        <ele>794</ele>
        <time>2009-01-29T14:36:51Z</time>
      </trkpt>
      <trkpt lat="44.828" lon="5.91517">
        <ele>794</ele>
        <time>2009-01-29T14:36:51Z</time>
      </trkpt>
      <trkpt lat="44.8282" lon="5.91462">
        <ele>801</ele>
        <time>2009-01-29T14:36:51Z</time>
      </trkpt>
      <trkpt lat="44.82855" lon="5.91429">
        <ele>814</ele>
        <time>2009-01-29T14:36:51Z</time>
      </trkpt>
      <trkpt lat="44.82901" lon="5.91397">
        <ele>832</ele>
        <time>2009-01-29T14:36:51Z</time>
      </trkpt>
      <trkpt lat="44.82939" lon="5.91387">
        <ele>845</ele>
        <time>2009-01-29T14:36:51Z</time>
      </trkpt>
      <trkpt lat="44.82964" lon="5.91398">
        <ele>852</ele>
        <time>2009-01-29T14:36:51Z</time>
      </trkpt>
      <trkpt lat="44.8297" lon="5.91332">
        <ele>858</ele>
        <time>2009-01-29T14:36:51Z</time>
      </trkpt>
      <trkpt lat="44.82998" lon="5.91372">
        <ele>864</ele>
        <time>2009-01-29T14:36:51Z</time>
      </trkpt>
      <trkpt lat="44.83009" lon="5.91338">
        <ele>868</ele>
        <time>2009-01-29T14:36:51Z</time>
      </trkpt>
      <trkpt lat="44.82993" lon="5.91261">
        <ele>869</ele>
        <time>2009-01-29T14:36:51Z</time>
      </trkpt>
      <trkpt lat="44.82967" lon="5.91148">
        <ele>870</ele>
        <time>2009-01-29T14:36:51Z</time>
      </trkpt>
      <trkpt lat="44.82982" lon="5.91108">
        <ele>879</ele>
        <time>2009-01-29T14:36:51Z</time>
      </trkpt>
      <trkpt lat="44.83015" lon="5.91224">
        <ele>878</ele>
        <time>2009-01-29T14:36:51Z</time>
      </trkpt>
      <trkpt lat="44.8304" lon="5.91273">
        <ele>882</ele>
        <time>2009-01-29T14:36:51Z</time>
      </trkpt>
      <trkpt lat="44.83024" lon="5.91133">
        <ele>891</ele>
        <time>2009-01-29T14:36:51Z</time>
      </trkpt>
      <trkpt lat="44.83015" lon="5.91015">
        <ele>897</ele>
        <time>2009-01-29T14:36:51Z</time>
      </trkpt>
      <trkpt lat="44.83051" lon="5.90942">
        <ele>904</ele>
        <time>2009-01-29T14:36:51Z</time>
      </trkpt>
      <trkpt lat="44.83052" lon="5.90901">
        <ele>902</ele>
        <time>2009-01-29T14:36:51Z</time>
      </trkpt>
      <trkpt lat="44.83065" lon="5.90854">
        <ele>905</ele>
        <time>2009-01-29T14:36:51Z</time>
      </trkpt>
      <trkpt lat="44.8308" lon="5.90801">
        <ele>908</ele>
        <time>2009-01-29T14:36:51Z</time>
      </trkpt>
      <trkpt lat="44.83105" lon="5.90714">
        <ele>904</ele>
        <time>2009-01-29T14:36:51Z</time>
      </trkpt>
      <trkpt lat="44.83135" lon="5.90837">
        <ele>917</ele>
        <time>2009-01-29T14:36:51Z</time>
      </trkpt>
      <trkpt lat="44.83178" lon="5.90912">
        <ele>921</ele>
        <time>2009-01-29T14:36:51Z</time>
      </trkpt>
      <trkpt lat="44.83206" lon="5.91009">
        <ele>916</ele>
        <time>2009-01-29T14:36:51Z</time>
      </trkpt>
      <trkpt lat="44.83209" lon="5.91053">
        <ele>911</ele>
        <time>2009-01-29T14:36:51Z</time>
      </trkpt>
      <trkpt lat="44.83179" lon="5.91143">
        <ele>919</ele>
        <time>2009-01-29T14:36:51Z</time>
      </trkpt>
      <trkpt lat="44.83191" lon="5.91194">
        <ele>919</ele>
        <time>2009-01-29T14:36:51Z</time>
      </trkpt>
      <trkpt lat="44.832" lon="5.91322">
        <ele>925</ele>
        <time>2009-01-29T14:36:51Z</time>
      </trkpt>
      <trkpt lat="44.83225" lon="5.91314">
        <ele>924</ele>
        <time>2009-01-29T14:36:51Z</time>
      </trkpt>
      <trkpt lat="44.83233" lon="5.91355">
        <ele>929</ele>
        <time>2009-01-29T14:36:51Z</time>
      </trkpt>
      <trkpt lat="44.83227" lon="5.91396">
        <ele>932</ele>
        <time>2009-01-29T14:36:51Z</time>
      </trkpt>
      <trkpt lat="44.83261" lon="5.91471">
        <ele>938</ele>
        <time>2009-01-29T14:36:51Z</time>
      </trkpt>
      <trkpt lat="44.83298" lon="5.9166">
        <ele>945</ele>
        <time>2009-01-29T14:36:51Z</time>
      </trkpt>
      <trkpt lat="44.83294" lon="5.91713">
        <ele>944</ele>
        <time>2009-01-29T14:36:51Z</time>
      </trkpt>
      <trkpt lat="44.83267" lon="5.91772">
        <ele>946</ele>
        <time>2009-01-29T14:36:51Z</time>
      </trkpt>
      <trkpt lat="44.83233" lon="5.91982">
        <ele>952</ele>
        <time>2009-01-29T14:36:51Z</time>
      </trkpt>
      <trkpt lat="44.83239" lon="5.92067">
        <ele>954</ele>
        <time>2009-01-29T14:36:51Z</time>
      </trkpt>
      <trkpt lat="44.83194" lon="5.92273">
        <ele>962</ele>
        <time>2009-01-29T14:36:51Z</time>
      </trkpt>
      <trkpt lat="44.83185" lon="5.92289">
        <ele>963</ele>
        <time>2009-01-29T14:36:51Z</time>
      </trkpt>
      <trkpt lat="44.8319" lon="5.92352">
        <ele>968</ele>
        <time>2009-01-29T14:36:51Z</time>
      </trkpt>
      <trkpt lat="44.83205" lon="5.92432">
        <ele>978</ele>
        <time>2009-01-29T14:36:51Z</time>
      </trkpt>
      <trkpt lat="44.83194" lon="5.92618">
        <ele>995</ele>
        <time>2009-01-29T14:36:51Z</time>
      </trkpt>
      <trkpt lat="44.83184" lon="5.92728">
        <ele>1003</ele>
        <time>2009-01-29T14:36:51Z</time>
      </trkpt>
      <trkpt lat="44.83226" lon="5.9269">
        <ele>1011</ele>
        <time>2009-01-29T14:36:51Z</time>
      </trkpt>
      <trkpt lat="44.8327" lon="5.92655">
        <ele>1019</ele>
        <time>2009-01-29T14:36:51Z</time>
      </trkpt>
      <trkpt lat="44.83344" lon="5.92577">
        <ele>1030</ele>
        <time>2009-01-29T14:36:51Z</time>
      </trkpt>
      <trkpt lat="44.83338" lon="5.92634">
        <ele>1036</ele>
        <time>2009-01-29T14:36:51Z</time>
      </trkpt>
      <trkpt lat="44.83329" lon="5.92706">
        <ele>1045</ele>
        <time>2009-01-29T14:36:51Z</time>
      </trkpt>
      <trkpt lat="44.83311" lon="5.92831">
        <ele>1054</ele>
        <time>2009-01-29T14:36:51Z</time>
      </trkpt>
      <trkpt lat="44.83323" lon="5.92898">
        <ele>1058</ele>
        <time>2009-01-29T14:36:51Z</time>
      </trkpt>
      <trkpt lat="44.83383" lon="5.92909">
        <ele>1080</ele>
        <time>2009-01-29T14:36:51Z</time>
      </trkpt>
      <trkpt lat="44.83415" lon="5.92949">
        <ele>1090</ele>
        <time>2009-01-29T14:36:51Z</time>
      </trkpt>
      <trkpt lat="44.83458" lon="5.92942">
        <ele>1106</ele>
        <time>2009-01-29T14:36:51Z</time>
      </trkpt>
      <trkpt lat="44.83512" lon="5.92945">
        <ele>1126</ele>
        <time>2009-01-29T14:36:51Z</time>
      </trkpt>
      <trkpt lat="44.83564" lon="5.92939">
        <ele>1143</ele>
        <time>2009-01-29T14:36:51Z</time>
      </trkpt>
      <trkpt lat="44.83587" lon="5.92928">
        <ele>1149</ele>
        <time>2009-01-29T14:36:51Z</time>
      </trkpt>
      <trkpt lat="44.83657" lon="5.92926">
        <ele>1164</ele>
        <time>2009-01-29T14:36:51Z</time>
      </trkpt>
      <trkpt lat="44.83723" lon="5.92968">
        <ele>1180</ele>
        <time>2009-01-29T14:36:51Z</time>
      </trkpt>
      <trkpt lat="44.83734" lon="5.93064">
        <ele>1192</ele>
        <time>2009-01-29T14:36:51Z</time>
      </trkpt>
      <trkpt lat="44.8384" lon="5.93125">
        <ele>1215</ele>
        <time>2009-01-29T14:36:51Z</time>
      </trkpt>
      <trkpt lat="44.83882" lon="5.9314">
        <ele>1224</ele>
        <time>2009-01-29T14:36:51Z</time>
      </trkpt>
      <trkpt lat="44.83994" lon="5.93226">
        <ele>1252</ele>
        <time>2009-01-29T14:36:51Z</time>
      </trkpt>
      <trkpt lat="44.83992" lon="5.93153">
        <ele>1248</ele>
        <time>2009-01-29T14:36:51Z</time>
      </trkpt>
      <trkpt lat="44.84" lon="5.93122">
        <ele>1246</ele>
        <time>2009-01-29T14:36:51Z</time>
      </trkpt>
      <trkpt lat="44.84029" lon="5.93175">
        <ele>1258</ele>
        <time>2009-01-29T14:36:51Z</time>
      </trkpt>
      <trkpt lat="44.84071" lon="5.932">
        <ele>1269</ele>
        <time>2009-01-29T14:36:51Z</time>
      </trkpt>
      <trkpt lat="44.84122" lon="5.93317">
        <ele>1274</ele>
        <time>2009-01-29T14:36:51Z</time>
      </trkpt>
      <trkpt lat="44.84168" lon="5.93399">
        <ele>1276</ele>
        <time>2009-01-29T14:36:51Z</time>
      </trkpt>
      <trkpt lat="44.8419" lon="5.93438">
        <ele>1277</ele>
        <time>2009-01-29T14:36:51Z</time>
      </trkpt>
      <trkpt lat="44.84239" lon="5.93448">
        <ele>1286</ele>
        <time>2009-01-29T14:36:51Z</time>
      </trkpt>
      <trkpt lat="44.84285" lon="5.93492">
        <ele>1295</ele>
        <time>2009-01-29T14:36:51Z</time>
      </trkpt>
      <trkpt lat="44.84344" lon="5.93521">
        <ele>1303</ele>
        <time>2009-01-29T14:36:51Z</time>
      </trkpt>
      <trkpt lat="44.84349" lon="5.93651">
        <ele>1321</ele>
        <time>2009-01-29T14:36:51Z</time>
      </trkpt>
      <trkpt lat="44.84499" lon="5.93825">
        <ele>1378</ele>
        <time>2009-01-29T14:36:51Z</time>
      </trkpt>
      <trkpt lat="44.84521" lon="5.93842">
        <ele>1384</ele>
        <time>2009-01-29T14:36:51Z</time>
      </trkpt>
      <trkpt lat="44.84582" lon="5.93887">
        <ele>1392</ele>
        <time>2009-01-29T14:36:51Z</time>
      </trkpt>
      <trkpt lat="44.84623" lon="5.93953">
        <ele>1408</ele>
        <time>2009-01-29T14:36:51Z</time>
      </trkpt>
      <trkpt lat="44.84665" lon="5.94038">
        <ele>1430</ele>
        <time>2009-01-29T14:36:51Z</time>
      </trkpt>
      <trkpt lat="44.84698" lon="5.94078">
        <ele>1441</ele>
        <time>2009-01-29T14:36:51Z</time>
      </trkpt>
      <trkpt lat="44.84708" lon="5.94114">
        <ele>1451</ele>
        <time>2009-01-29T14:36:51Z</time>
      </trkpt>
      <trkpt lat="44.84689" lon="5.94125">
        <ele>1459</ele>
        <time>2009-01-29T14:36:51Z</time>
      </trkpt>
      <trkpt lat="44.84597" lon="5.94119">
        <ele>1486</ele>
        <time>2009-01-29T14:36:51Z</time>
      </trkpt>
      <trkpt lat="44.8464" lon="5.94185">
        <ele>1499</ele>
        <time>2009-01-29T14:36:51Z</time>
      </trkpt>
      <trkpt lat="44.8467" lon="5.94222">
        <ele>1506</ele>
        <time>2009-01-29T14:36:51Z</time>
      </trkpt>
      <trkpt lat="44.8474" lon="5.94303">
        <ele>1525</ele>
        <time>2009-01-29T14:36:51Z</time>
      </trkpt>
      <trkpt lat="44.84804" lon="5.94402">
        <ele>1535</ele>
        <time>2009-01-29T14:36:51Z</time>
      </trkpt>
      <trkpt lat="44.84825" lon="5.94517">
        <ele>1565</ele>
        <time>2009-01-29T14:36:51Z</time>
      </trkpt>
      <trkpt lat="44.8483" lon="5.94562">
        <ele>1576</ele>
        <time>2009-01-29T14:36:51Z</time>
      </trkpt>
      <trkpt lat="44.84824" lon="5.94628">
        <ele>1591</ele>
        <time>2009-01-29T14:36:51Z</time>
      </trkpt>
      <trkpt lat="44.84907" lon="5.94636">
        <ele>1607</ele>
        <time>2009-01-29T14:36:51Z</time>
      </trkpt>
      <trkpt lat="44.84952" lon="5.94639">
        <ele>1619</ele>
        <time>2009-01-29T14:36:51Z</time>
      </trkpt>
      <trkpt lat="44.85015" lon="5.94646">
        <ele>1640</ele>
        <time>2009-01-29T14:36:51Z</time>
      </trkpt>
      <trkpt lat="44.85055" lon="5.94636">
        <ele>1649</ele>
        <time>2009-01-29T14:36:51Z</time>
      </trkpt>
      <trkpt lat="44.85113" lon="5.94602">
        <ele>1658</ele>
        <time>2009-01-29T14:36:51Z</time>
      </trkpt>
      <trkpt lat="44.85107" lon="5.94636">
        <ele>1665</ele>
        <time>2009-01-29T14:36:51Z</time>
      </trkpt>
      <trkpt lat="44.85065" lon="5.94688">
        <ele>1666</ele>
        <time>2009-01-29T14:36:51Z</time>
      </trkpt>
      <trkpt lat="44.85019" lon="5.94719">
        <ele>1663</ele>
        <time>2009-01-29T14:36:51Z</time>
      </trkpt>
      <trkpt lat="44.84937" lon="5.94879">
        <ele>1688</ele>
        <time>2009-01-29T14:36:51Z</time>
      </trkpt>
      <trkpt lat="44.84981" lon="5.94847">
        <ele>1692</ele>
        <time>2009-01-29T14:36:51Z</time>
      </trkpt>
      <trkpt lat="44.85032" lon="5.94809">
        <ele>1693</ele>
        <time>2009-01-29T14:36:51Z</time>
      </trkpt>
      <trkpt lat="44.85077" lon="5.94799">
        <ele>1704</ele>
        <time>2009-01-29T14:36:51Z</time>
      </trkpt>
      <trkpt lat="44.85108" lon="5.94804">
        <ele>1717</ele>
        <time>2009-01-29T14:36:51Z</time>
      </trkpt>
      <trkpt lat="44.85216" lon="5.94688">
        <ele>1729</ele>
        <time>2009-01-29T14:36:51Z</time>
      </trkpt>
      <trkpt lat="44.85164" lon="5.94839">
        <ele>1754</ele>
        <time>2009-01-29T14:36:51Z</time>
      </trkpt>
      <trkpt lat="44.85302" lon="5.94674">
        <ele>1765</ele>
        <time>2009-01-29T14:36:51Z</time>
      </trkpt>
      <trkpt lat="44.85391" lon="5.94572">
        <ele>1778</ele>
        <time>2009-01-29T14:36:51Z</time>
      </trkpt>
      <trkpt lat="44.85516" lon="5.94457">
        <ele>1801</ele>
        <time>2009-01-29T14:36:51Z</time>
      </trkpt>
      <trkpt lat="44.85599" lon="5.94393">
        <ele>1822</ele>
        <time>2009-01-29T14:36:51Z</time>
      </trkpt>
      <trkpt lat="44.85662" lon="5.94315">
        <ele>1829</ele>
        <time>2009-01-29T14:36:51Z</time>
      </trkpt>
      <trkpt lat="44.85757" lon="5.94245">
        <ele>1846</ele>
        <time>2009-01-29T14:36:51Z</time>
      </trkpt>
      <trkpt lat="44.85897" lon="5.94159">
        <ele>1863</ele>
        <time>2009-01-29T14:36:51Z</time>
      </trkpt>
      <trkpt lat="44.85994" lon="5.94092">
        <ele>1867</ele>
        <time>2009-01-29T14:36:51Z</time>
      </trkpt>
      <trkpt lat="44.86011" lon="5.93923">
        <ele>1824</ele>
        <time>2009-01-29T14:36:51Z</time>
      </trkpt>
      <trkpt lat="44.86074" lon="5.9399">
        <ele>1838</ele>
        <time>2009-01-29T14:36:51Z</time>
      </trkpt>
      <trkpt lat="44.86171" lon="5.94044">
        <ele>1858</ele>
        <time>2009-01-29T14:36:51Z</time>
      </trkpt>
      <trkpt lat="44.86253" lon="5.94074">
        <ele>1844</ele>
        <time>2009-01-29T14:36:51Z</time>
      </trkpt>
      <trkpt lat="44.86262" lon="5.94167">
        <ele>1842</ele>
        <time>2009-01-29T14:36:51Z</time>
      </trkpt>
      <trkpt lat="44.86226" lon="5.94348">
        <ele>1854</ele>
        <time>2009-01-29T14:36:51Z</time>
      </trkpt>
      <trkpt lat="44.86175" lon="5.94598">
        <ele>1872</ele>
        <time>2009-01-29T14:36:51Z</time>
      </trkpt>
      <trkpt lat="44.86144" lon="5.94675">
        <ele>1877</ele>
        <time>2009-01-29T14:36:51Z</time>
      </trkpt>
      <trkpt lat="44.86088" lon="5.94849">
        <ele>1900</ele>
        <time>2009-01-29T14:36:51Z</time>
      </trkpt>
      <trkpt lat="44.8608" lon="5.94956">
        <ele>1911</ele>
        <time>2009-01-29T14:36:51Z</time>
      </trkpt>
      <trkpt lat="44.8601" lon="5.95312">
        <ele>1896</ele>
        <time>2009-01-29T14:36:51Z</time>
      </trkpt>
      <trkpt lat="44.86094" lon="5.95444">
        <ele>1869</ele>
        <time>2009-01-29T14:36:51Z</time>
      </trkpt>
      <trkpt lat="44.86088" lon="5.95472">
        <ele>1857</ele>
        <time>2009-01-29T14:36:51Z</time>
      </trkpt>
      <trkpt lat="44.86126" lon="5.95557">
        <ele>1836</ele>
        <time>2009-01-29T14:36:51Z</time>
      </trkpt>
      <trkpt lat="44.86229" lon="5.95639">
        <ele>1832</ele>
        <time>2009-01-29T14:36:51Z</time>
      </trkpt>
      <trkpt lat="44.86288" lon="5.95703">
        <ele>1827</ele>
        <time>2009-01-29T14:36:51Z</time>
      </trkpt>
      <trkpt lat="44.86336" lon="5.95814">
        <ele>1824</ele>
        <time>2009-01-29T14:36:51Z</time>
      </trkpt>
      <trkpt lat="44.86368" lon="5.95857">
        <ele>1826</ele>
        <time>2009-01-29T14:36:51Z</time>
      </trkpt>
      <trkpt lat="44.86324" lon="5.95889">
        <ele>1826</ele>
        <time>2009-01-29T14:36:51Z</time>
      </trkpt>
      <trkpt lat="44.86273" lon="5.95952">
        <ele>1825</ele>
        <time>2009-01-29T14:36:51Z</time>
      </trkpt>
      <trkpt lat="44.86148" lon="5.96043">
        <ele>1794</ele>
        <time>2009-01-29T14:36:51Z</time>
      </trkpt>
      <trkpt lat="44.86122" lon="5.96085">
        <ele>1792</ele>
        <time>2009-01-29T14:36:51Z</time>
      </trkpt>
      <trkpt lat="44.86044" lon="5.96216">
        <ele>1793</ele>
        <time>2009-01-29T14:36:51Z</time>
      </trkpt>
      <trkpt lat="44.85889" lon="5.96412">
        <ele>1760</ele>
        <time>2009-01-29T14:36:51Z</time>
      </trkpt>
      <trkpt lat="44.85863" lon="5.96432">
        <ele>1748</ele>
        <time>2009-01-29T14:36:51Z</time>
      </trkpt>
      <trkpt lat="44.85822" lon="5.96461">
        <ele>1726</ele>
        <time>2009-01-29T14:36:51Z</time>
      </trkpt>
      <trkpt lat="44.85787" lon="5.96494">
        <ele>1712</ele>
        <time>2009-01-29T14:36:51Z</time>
      </trkpt>
      <trkpt lat="44.85749" lon="5.96488">
        <ele>1697</ele>
        <time>2009-01-29T14:36:51Z</time>
      </trkpt>
      <trkpt lat="44.85717" lon="5.96508">
        <ele>1690</ele>
        <time>2009-01-29T14:36:51Z</time>
      </trkpt>
      <trkpt lat="44.85689" lon="5.96535">
        <ele>1680</ele>
        <time>2009-01-29T14:36:51Z</time>
      </trkpt>
      <trkpt lat="44.85653" lon="5.96533">
        <ele>1668</ele>
        <time>2009-01-29T14:36:51Z</time>
      </trkpt>
      <trkpt lat="44.8561" lon="5.96533">
        <ele>1656</ele>
        <time>2009-01-29T14:36:51Z</time>
      </trkpt>
      <trkpt lat="44.85609" lon="5.96555">
        <ele>1654</ele>
        <time>2009-01-29T14:36:51Z</time>
      </trkpt>
      <trkpt lat="44.85638" lon="5.9657">
        <ele>1660</ele>
        <time>2009-01-29T14:36:51Z</time>
      </trkpt>
      <trkpt lat="44.85676" lon="5.96566">
        <ele>1674</ele>
        <time>2009-01-29T14:36:51Z</time>
      </trkpt>
      <trkpt lat="44.85705" lon="5.96587">
        <ele>1684</ele>
        <time>2009-01-29T14:36:51Z</time>
      </trkpt>
      <trkpt lat="44.85721" lon="5.96648">
        <ele>1694</ele>
        <time>2009-01-29T14:36:51Z</time>
      </trkpt>
      <trkpt lat="44.8572" lon="5.96958">
        <ele>1690</ele>
        <time>2009-01-29T14:36:51Z</time>
      </trkpt>
      <trkpt lat="44.85737" lon="5.96991">
        <ele>1680</ele>
        <time>2009-01-29T14:36:51Z</time>
      </trkpt>
      <trkpt lat="44.85791" lon="5.96997">
        <ele>1707</ele>
        <time>2009-01-29T14:36:51Z</time>
      </trkpt>
      <trkpt lat="44.85812" lon="5.97021">
        <ele>1722</ele>
        <time>2009-01-29T14:36:51Z</time>
      </trkpt>
      <trkpt lat="44.85833" lon="5.97139">
        <ele>1711</ele>
        <time>2009-01-29T14:36:51Z</time>
      </trkpt>
      <trkpt lat="44.85902" lon="5.97232">
        <ele>1743</ele>
        <time>2009-01-29T14:36:51Z</time>
      </trkpt>
      <trkpt lat="44.85911" lon="5.97303">
        <ele>1762</ele>
        <time>2009-01-29T14:36:51Z</time>
      </trkpt>
      <trkpt lat="44.85874" lon="5.97401">
        <ele>1754</ele>
        <time>2009-01-29T14:36:51Z</time>
      </trkpt>
      <trkpt lat="44.85883" lon="5.97484">
        <ele>1763</ele>
        <time>2009-01-29T14:36:51Z</time>
      </trkpt>
      <trkpt lat="44.85876" lon="5.9756">
        <ele>1762</ele>
        <time>2009-01-29T14:36:51Z</time>
      </trkpt>
      <trkpt lat="44.85879" lon="5.97677">
        <ele>1764</ele>
        <time>2009-01-29T14:36:51Z</time>
      </trkpt>
      <trkpt lat="44.85889" lon="5.977">
        <ele>1768</ele>
        <time>2009-01-29T14:36:51Z</time>
      </trkpt>
      <trkpt lat="44.8584" lon="5.97763">
        <ele>1762</ele>
        <time>2009-01-29T14:36:51Z</time>
      </trkpt>
      <trkpt lat="44.8584" lon="5.97763">
        <ele>1762</ele>
        <time>2009-01-29T14:36:51Z</time>
      </trkpt>
      <trkpt lat="44.8584" lon="5.97763">
        <ele>1762</ele>
        <time>2009-01-29T14:36:51Z</time>
      </trkpt>
      <trkpt lat="44.8584" lon="5.97763">
        <ele>1762</ele>
        <time>2009-01-29T14:36:51Z</time>
      </trkpt>
    </trkseg>
  </trk>
</gpx>